Temperature
15 15 15 15 13 12 14 14 15 15 17 18 19 19 19 19 20 20 22 22 21 21 20 19 18 18 17 16 16 16 16 16 16 16 16 16 16 15 15 15 15 15 15 15 14 14 14 14 14
15 15 15 15 13 13 14 14 15 16 18 19 19 19 19 19 21 21 21 21 21 20 20 19 18 18 17 16 16 16 16 16 16 16 16 16 15 15 15 15 15 14 14 14 14 14 14 14 14
15 15 15 12 13 13 15 15 15 16 18 18 19 19 19 20 20 21 21 21 20 20 19 19 18 18 17 16 16 16 16 15 15 15 15 15 15 15 15 14 14 14 14 14 14 14 14 14 14
14 14 14 12 13 13 14 15 15 16 18 18 18 18 19 20 20 20 20 20 20 20 19 19 18 17 17 16 16 16 16 15 15 15 15 15 15 15 14 14 14 14 14 14 14 14 14 14 13
14 14 12 12 13 14 14 15 16 16 16 18 18 17 19 19 20 20 20 20 20 19 19 18 17 17 17 16 16 16 16 15 15 15 15 15 15 15 14 14 14 14 14 14 13 14 14 14 13
14 12 12 12 13 14 14 16 16 15 16 17 17 17 18 19 20 20 20 19 19 19 18 18 17 17 16 16 16 16 16 15 15 15 15 15 14 14 14 14 14 14 14 13 13 13 13 13 13
13 11 12 12 13 14 15 16 16 15 15 17 17 16 18 19 19 19 19 19 18 18 18 17 17 16 16 16 16 16 16 15 15 15 15 14 14 14 14 14 13 13 13 13 13 13 13 13 13
14 11 12 12 13 14 15 16 16 16 16 17 17 16 17 18 18 18 18 18 18 18 17 17 17 16 16 16 15 15 15 15 15 15 14 14 14 14 14 14 13 13 13 13 13 13 12 13 13
13 11 11 12 13 14 15 15 16 16 16 17 17 17 17 18 18 18 18 18 18 17 17 17 17 16 16 15 15 15 15 15 15 14 14 14 14 14 14 13 13 13 13 12 12 12 12 12 12
12 10 12 13 13 13 14 14 15 15 15 15 16 17 17 17 17 17 17 17 17 17 17 17 17 16 16 15 15 15 15 15 15 14 14 14 14 14 13 13 13 13 12 12 12 12 12 12 12
11 11 12 13 13 13 13 14 14 14 13 15 16 16 16 16 16 17 17 17 17 17 17 17 16 16 16 16 15 15 15 15 15 14 14 14 14 13 13 13 13 12 12 12 12 12 12 12 12
10 11 12 13 13 13 13 13 13 13 14 16 16 16 16 16 16 16 17 17 17 16 16 16 16 16 16 16 15 15 15 15 15 14 14 14 14 13 13 13 13 13 12 12 12 12 12 12 12
10 11 12 12 13 13 13 12 13 13 15 15 15 16 16 16 16 16 16 16 16 16 16 16 16 16 16 15 15 15 15 15 15 14 14 14 14 14 13 13 13 12 12 12 12 12 12 12 12
11 11 11 12 12 12 12 12 12 14 15 15 15 15 15 16 16 16 16 16 16 16 16 16 16 16 15 15 15 15 15 15 14 14 14 14 14 13 13 13 13 12 12 12 12 12 12 12 11
11 10 10 11 11 12 12 11 11 14 14 14 15 15 15 15 15 15 15 15 16 16 16 16 16 16 15 15 15 15 15 15 14 14 14 14 13 13 13 13 13 12 12 12 11 11 11 11 11
10 10 10 11 11 12 12 11 12 14 14 13 14 14 14 14 14 15 15 15 15 15 16 15 15 15 15 15 15 15 14 14 14 14 14 13 13 13 13 13 13 12 12 12 11 11 11 11 11
9 9 9 10 11 11 11 10 11 13 13 12 13 13 13 14 14 14 14 15 15 15 15 15 15 15 15 15 15 15 14 14 14 14 14 13 13 13 13 13 13 12 12 11 11 11 11 11 11
9 9 9 9 10 10 10 10 11 12 12 12 12 13 13 13 14 14 14 14 14 15 15 15 15 15 15 14 14 14 14 14 14 14 14 13 13 13 13 12 12 12 11 11 11 11 11 11 11
9 9 9 9 10 10 9 10 10 11 11 11 11 12 12 13 13 14 14 14 14 14 14 14 15 15 14 14 14 14 14 14 14 14 13 13 13 13 12 12 12 12 11 11 11 11 11 11 11
9 9 8 9 10 10 9 9 10 10 10 11 11 12 12 13 13 13 14 14 14 14 14 14 14 14 14 14 14 13 13 13 13 13 13 13 13 13 12 12 12 12 12 11 11 11 11 10 10
9 8 8 9 9 9 8 9 10 10 10 11 11 12 12 12 12 13 13 13 13 14 14 14 14 14 14 13 13 13 12 12 12 13 13 13 13 12 12 12 12 12 11 11 11 11 10 10 10
9 9 9 9 8 8 8 8 9 9 9 9 10 11 11 12 12 12 13 13 13 13 13 13 13 13 13 13 13 12 12 12 12 13 13 13 13 12 12 12 12 11 11 11 11 11 10 10 9
9 9 9 9 8 7 7 7 8 8 9 10 9 10 11 11 12 12 12 13 13 13 13 13 13 13 13 13 12 12 12 12 12 12 12 12 12 12 12 12 11 11 11 11 11 10 10 10 9
9 8 8 7 7 7 7 7 8 8 9 9 9 10 11 11 11 12 12 12 12 12 12 12 13 12 12 12 12 12 12 12 12 12 12 12 12 12 12 12 11 11 11 11 10 10 10 10 9
9 8 7 7 7 7 7 7 8 9 9 9 8 9 10 10 11 11 11 12 12 12 12 12 12 12 12 12 12 12 12 11 11 11 11 12 12 12 12 11 11 11 11 11 10 10 10 10 9
8 8 7 8 7 7 7 7 8 8 8 9 9 9 9 10 10 11 11 11 11 11 11 11 11 11 11 11 11 11 11 11 11 11 11 11 11 11 11 11 11 11 11 10 10 10 10 9 9
7 7 7 6 6 6 6 6 7 8 8 8 8 8 9 10 10 10 10 11 11 11 11 10 11 11 11 11 10 10 11 10 11 10 10 10 11 11 11 11 11 11 10 10 10 9 9 9 9
8 7 6 6 6 6 6 6 7 8 8 8 7 8 9 9 10 10 10 10 10 10 10 10 10 10 10 10 10 10 10 10 10 10 10 10 10 10 10 10 10 10 10 10 9 9 9 9 8
7 7 6 5 5 5 6 7 8 8 8 7 7 8 9 9 9 9 9 9 9 10 9 9 9 9 9 9 9 9 9 9 10 10 10 10 10 10 10 10 10 10 10 9 9 9 8 8 8
7 6 6 5 5 4 4 7 8 7 7 7 7 8 9 9 9 9 9 9 9 9 9 9 9 9 8 9 9 9 9 9 9 9 9 9 9 9 9 9 9 9 9 9 8 8 8 8 8
Wind_Speed
2 4 3 3 4 1 5 6 4 4 4 3 2 3 4 4 4 4 3 5 4 7 12 15 18 18 17 16 16 15 14 14 13 13 13 12 13 13 12 12 12 11 11 10 10 11 11 11 11
2 3 4 4 3 4 7 6 6 7 4 4 2 1 2 4 3 2 2 3 4 7 11 12 17 18 17 17 16 16 15 14 13 13 12 12 13 12 12 12 11 11 10 10 10 10 10 10 10
2 3 3 3 4 7 6 4 6 6 6 3 3 2 2 3 2 2 3 4 5 6 9 11 17 18 17 17 17 16 15 15 14 13 13 12 12 12 12 12 11 10 10 9 9 10 10 10 9
3 3 3 2 9 8 6 4 2 5 5 2 1 5 4 3 2 2 1 5 6 6 7 10 16 18 17 17 17 16 16 15 15 14 13 13 12 12 12 12 11 10 10 10 10 10 10 9 9
3 3 1 5 10 6 6 6 4 4 4 3 2 4 5 3 2 2 3 5 6 5 5 9 15 16 17 16 16 16 16 16 15 15 14 14 13 12 12 12 11 10 10 10 10 10 10 9 9
3 3 3 8 9 7 6 5 3 4 5 5 3 4 6 3 2 1 2 4 5 6 5 7 13 15 15 15 16 16 16 15 16 15 15 15 14 13 12 12 12 11 11 11 11 11 10 10 10
3 3 5 7 7 7 5 3 3 5 6 6 3 4 6 5 3 1 2 3 4 4 5 5 8 11 14 15 15 15 15 15 15 15 15 15 14 14 14 13 12 12 12 11 11 11 11 10 10
4 2 5 6 7 7 4 3 3 4 7 4 3 4 6 5 3 2 3 3 3 4 5 5 6 7 9 11 13 14 15 15 15 15 14 13 14 14 14 13 13 13 12 12 11 12 11 11 10
3 2 7 7 7 6 3 4 5 3 4 4 4 5 6 3 1 2 1 0 3 5 5 6 6 6 7 8 11 12 13 14 14 13 13 12 10 11 12 12 13 14 13 13 13 12 12 11 10
3 5 9 6 4 4 6 5 6 5 6 6 6 6 4 2 3 4 5 6 6 8 8 7 8 7 6 7 8 8 10 11 11 10 10 9 9 9 10 13 14 14 14 14 14 13 11 9 7
4 7 6 6 5 6 7 7 5 5 9 9 9 8 4 3 5 6 7 8 9 8 8 9 9 8 7 6 5 5 6 7 8 9 10 9 8 7 7 8 10 12 12 10 10 9 7 7 6
4 7 6 7 5 6 8 7 7 9 12 9 8 7 5 6 7 9 9 8 7 7 9 9 9 9 8 7 6 5 4 5 5 8 10 8 5 5 5 5 6 7 7 6 6 5 6 7 8
5 7 7 9 11 10 10 11 10 12 13 10 8 7 8 9 10 9 8 7 7 8 10 10 10 10 9 8 7 7 6 6 6 7 10 10 6 6 5 5 6 6 7 7 6 5 6 6 6
4 6 8 9 10 7 9 11 8 12 8 7 7 8 9 9 9 7 6 7 8 8 9 9 10 11 10 9 9 8 7 7 7 7 10 12 9 7 6 6 5 6 7 7 7 7 6 6 5
3 6 9 7 6 4 5 10 10 11 6 8 9 9 9 8 8 8 7 7 7 7 7 8 10 10 10 10 10 8 7 7 7 8 10 12 11 9 8 7 7 7 8 8 6 6 6 6 6
1 3 6 6 3 4 2 12 10 6 6 10 10 10 9 8 7 7 6 6 6 5 6 7 7 8 10 10 9 8 7 8 8 8 9 12 13 12 9 8 8 8 7 6 5 5 6 7 7
1 3 6 7 4 3 4 12 12 8 7 11 10 9 8 7 6 5 5 4 4 5 5 6 7 8 9 9 8 7 7 8 8 8 9 11 13 13 10 9 8 8 7 6 7 6 6 7 7
5 5 6 7 5 5 10 16 17 11 9 10 9 6 5 5 7 5 4 4 4 4 4 5 6 6 6 6 5 5 6 7 7 8 9 11 11 13 11 9 9 9 7 7 7 7 6 6 6
4 6 9 10 8 7 12 16 18 13 9 8 6 5 4 5 5 4 4 4 3 3 3 4 5 5 4 5 6 6 7 7 7 9 10 11 12 12 12 10 9 10 10 10 9 7 7 6 4
6 8 9 9 6 6 10 14 14 10 7 6 5 5 5 5 5 4 3 2 3 3 4 5 5 5 5 6 6 6 5 5 7 7 9 11 11 12 12 12 11 11 10 10 10 8 6 5 5
7 8 7 8 8 4 6 9 7 5 4 4 4 4 4 5 6 5 4 3 3 4 5 5 6 6 6 6 4 3 2 3 4 7 8 10 11 12 12 12 12 11 11 11 12 11 10 8 6
7 7 8 7 5 5 3 6 8 6 6 5 4 4 5 5 5 4 4 4 4 5 5 5 5 5 6 6 5 6 6 7 8 8 8 8 10 11 12 12 13 12 11 11 12 12 10 8 7
6 3 5 5 4 5 3 4 9 5 5 5 4 4 5 5 4 5 5 4 5 4 4 5 5 5 5 5 7 7 8 8 6 5 7 8 9 11 12 13 12 13 12 12 11 12 12 10 10
2 2 2 2 1 4 5 5 7 4 5 4 4 4 5 4 4 5 5 4 4 4 4 5 5 6 5 5 7 8 9 9 7 7 7 7 7 8 11 13 13 13 12 12 12 13 13 12 11
2 3 3 4 2 6 2 4 8 7 4 3 5 5 4 4 4 4 5 5 5 6 5 5 5 6 5 5 7 8 9 9 9 9 8 8 7 8 10 12 12 12 12 12 11 11 12 13 12
4 5 4 4 4 5 3 6 7 6 3 3 3 4 4 4 4 5 5 5 6 6 6 6 6 6 6 5 6 7 7 7 7 7 7 7 7 8 8 11 13 13 12 12 11 10 11 11 13
4 4 4 3 2 4 6 7 9 4 3 3 4 5 5 6 6 7 7 6 6 7 7 6 6 6 6 6 6 6 6 6 7 7 7 7 7 7 7 9 10 12 12 12 12 10 12 11 12
4 5 4 3 3 5 6 6 5 5 4 4 4 5 7 7 7 8 7 7 7 6 6 6 5 6 6 6 6 5 6 7 7 6 8 8 8 7 7 9 10 10 11 12 12 10 11 12 12
4 4 4 3 3 4 5 7 6 6 4 3 4 5 6 7 8 8 8 8 7 6 6 6 5 6 6 6 6 6 6 6 7 7 8 8 8 8 8 9 10 10 11 11 12 13 12 13 13
6 7 7 5 5 4 4 9 6 5 4 3 5 6 7 7 7 7 8 8 8 7 6 6 5 6 6 6 6 6 6 6 6 8 8 7 7 7 8 8 9 10 11 11 12 13 12 13 14
Wind_Direction
48 90 77 62 60 46 246 243 230 262 248 247 239 211 200 204 195 237 307 155 162 161 174 184 178 176 175 174 171 166 163 161 159 156 156 156 155 154 152 150 146 144 139 138 138 135 134 132 130
104 89 62 70 123 228 253 235 232 235 254 314 314 248 253 259 248 263 310 205 168 164 173 182 180 177 177 177 173 170 168 166 164 161 160 161 160 161 160 157 153 150 145 143 143 143 142 139 137
101 71 96 106 188 213 237 234 236 264 276 296 309 289 242 259 267 252 257 176 153 163 174 182 181 181 181 181 178 174 173 171 170 169 168 168 167 166 166 166 161 156 152 151 150 149 149 147 146
92 60 69 177 234 231 231 258 280 307 315 294 275 298 284 272 278 278 209 152 151 165 172 183 183 184 185 185 182 180 178 178 178 177 175 175 175 173 171 169 167 166 164 160 159 157 157 154 155
70 93 156 245 247 248 250 269 283 296 304 308 314 282 279 300 353 54 112 151 159 168 172 185 186 187 189 188 186 185 183 183 184 183 182 182 181 179 177 174 174 176 175 173 172 170 166 164 167
77 92 194 244 255 264 259 257 269 276 285 300 298 276 266 286 2 7 129 158 165 168 171 184 192 193 192 192 191 189 187 188 189 190 190 190 189 185 184 184 184 184 183 184 185 183 178 175 175
130 149 221 247 267 271 264 253 231 260 273 269 254 271 283 299 319 14 118 140 156 169 173 185 194 197 198 199 198 197 196 195 194 194 195 195 193 192 192 191 191 189 189 191 194 193 187 186 184
138 144 238 246 253 263 272 288 248 245 263 261 189 231 269 292 351 53 74 115 161 181 188 194 197 196 197 200 202 203 201 200 199 199 196 195 194 196 195 195 196 196 196 196 199 201 195 193 190
109 167 236 237 239 261 284 292 285 266 250 266 237 239 267 306 10 86 69 58 204 208 207 202 201 201 197 198 203 203 204 203 201 201 198 194 194 195 196 197 200 202 203 202 203 205 203 197 193
140 211 235 236 236 274 293 279 284 292 276 271 274 275 289 274 216 200 208 217 221 220 213 207 205 204 200 202 198 201 202 201 200 197 194 192 189 192 194 199 203 207 207 207 208 208 207 199 188
185 220 249 259 259 275 285 283 278 266 268 254 260 274 276 253 244 231 227 223 223 224 217 210 208 204 201 202 194 196 198 196 196 193 190 186 183 187 191 194 203 207 207 205 206 205 198 189 184
220 246 248 267 277 282 274 278 275 245 254 262 256 259 255 252 249 243 237 236 235 229 227 215 208 206 205 203 201 197 197 200 200 196 191 184 184 188 189 192 197 198 198 193 192 189 190 192 194
236 264 263 265 274 269 272 266 266 261 265 276 276 269 256 255 253 255 251 246 237 234 232 222 209 209 206 204 206 207 204 205 205 198 198 192 193 199 198 198 197 198 197 192 190 193 194 197 199
251 271 280 276 272 268 266 270 259 264 266 278 280 272 264 256 254 261 259 246 241 240 237 228 213 212 207 206 208 209 207 205 202 205 206 201 200 200 201 204 202 202 199 199 198 199 201 205 205
279 297 296 275 268 269 286 284 244 257 278 281 280 276 272 264 262 255 250 249 243 244 244 236 219 211 209 211 211 210 206 203 208 211 209 207 206 203 203 207 211 210 204 200 201 206 203 210 213
331 304 287 285 288 280 266 271 267 277 288 282 279 276 274 269 261 256 255 259 256 249 248 244 231 212 212 215 215 212 207 207 212 211 211 212 212 208 205 211 216 207 198 196 203 208 211 218 217
329 272 267 292 288 291 257 270 278 290 285 278 279 277 274 277 273 267 261 259 265 248 248 248 234 217 214 216 218 215 211 212 214 211 213 214 213 211 210 215 215 201 201 206 211 214 209 218 221
248 259 266 269 287 289 270 269 280 286 277 274 279 278 274 272 268 267 265 266 272 261 255 254 243 227 215 211 214 217 219 219 217 217 217 214 214 211 212 216 211 201 205 211 212 217 215 216 214
231 252 270 271 277 286 268 275 283 285 281 276 274 273 269 266 275 281 273 272 278 279 273 267 256 239 213 207 208 214 222 224 224 224 222 218 217 213 213 217 213 207 211 215 213 214 216 218 193
239 263 273 284 282 280 282 281 280 275 261 249 256 264 264 280 298 299 292 290 281 269 263 258 253 243 222 217 216 216 223 230 230 229 225 220 219 216 215 216 216 213 214 213 212 211 211 211 189
238 235 250 272 307 300 308 298 288 286 285 274 265 263 265 265 271 288 291 285 287 277 265 260 251 246 235 224 221 224 222 235 232 231 228 223 219 218 217 216 216 214 212 215 213 209 207 213 207
255 234 238 266 304 297 360 300 285 286 301 286 279 284 275 271 269 280 291 300 292 276 275 269 262 251 242 224 213 213 220 230 233 232 233 229 222 221 219 217 215 214 214 217 216 212 211 204 212
231 244 243 257 250 281 259 240 283 301 281 281 281 285 281 272 265 274 281 281 285 282 285 280 276 266 250 229 219 220 229 235 241 239 237 234 226 222 220 218 216 216 216 217 215 213 210 209 211
213 4 348 25 122 265 235 202 280 262 248 285 298 306 297 288 284 291 301 311 312 311 304 294 285 273 259 239 227 224 234 243 246 242 239 238 232 226 224 220 218 218 218 218 216 215 212 212 213
99 75 351 335 318 254 230 221 253 258 249 256 283 302 310 304 305 312 318 320 317 317 311 306 300 288 275 252 242 236 237 237 238 243 241 242 239 232 229 221 220 220 220 219 216 216 218 215 215
183 159 181 236 254 288 289 242 255 270 276 279 289 303 314 313 314 312 305 300 302 308 308 306 302 295 289 267 256 250 246 241 242 244 244 243 243 239 236 227 223 221 219 219 216 218 220 219 220
159 197 178 168 251 271 266 279 298 296 320 338 345 346 330 322 321 316 315 308 304 307 304 300 297 295 294 283 271 263 256 250 250 251 247 248 249 250 244 235 228 223 220 218 216 220 219 220 223
176 158 128 170 233 262 279 268 251 280 293 320 342 334 326 328 329 327 323 317 308 303 301 305 301 296 295 290 278 275 265 256 256 260 257 253 253 252 250 241 232 227 223 221 219 223 221 220 225
159 168 171 181 197 210 270 268 228 223 246 278 298 308 316 325 323 321 319 315 311 311 311 308 305 303 301 298 292 286 280 274 268 263 259 258 258 253 248 244 235 231 226 223 224 226 223 223 227
189 191 168 188 233 214 241 270 260 231 251 260 292 308 319 322 318 315 314 317 319 316 310 304 302 300 294 295 294 290 286 281 277 272 268 265 264 260 253 249 241 237 231 226 225 230 228 227 228
Height
1493 1494 1496 1498 1502 1508 1505 1498 1493 1490 1486 1483 1482 1482 1481 1482 1484 1486 1479 1476 1476 1477 1478 1479 1481 1483 1485 1488 1490 1492 1494 1496 1497 1499 1500 1501 1502 1504 1505 1506 1507 1508 1510 1511 1512 1513 1513 1514 1515
1493 1495 1497 1498 1505 1510 1502 1493 1490 1486 1483 1482 1481 1480 1480 1479 1479 1478 1476 1476 1476 1477 1478 1479 1481 1483 1485 1487 1489 1491 1493 1495 1497 1498 1499 1501 1502 1503 1504 1506 1507 1508 1509 1510 1511 1512 1513 1514 1515
1493 1494 1497 1499 1503 1502 1494 1487 1485 1482 1482 1482 1481 1479 1479 1478 1478 1477 1477 1476 1476 1477 1477 1478 1480 1482 1484 1486 1489 1490 1492 1494 1496 1497 1499 1500 1501 1502 1503 1505 1506 1507 1508 1509 1511 1512 1513 1514 1515
1493 1495 1497 1500 1496 1492 1488 1484 1483 1482 1481 1480 1480 1479 1478 1478 1477 1477 1476 1475 1475 1476 1477 1478 1480 1481 1483 1486 1488 1489 1491 1493 1495 1496 1498 1499 1500 1501 1503 1504 1505 1506 1507 1508 1510 1511 1512 1513 1514
1492 1494 1498 1498 1492 1488 1485 1483 1482 1482 1481 1480 1480 1479 1476 1476 1476 1475 1475 1475 1474 1475 1476 1477 1479 1481 1483 1485 1486 1488 1490 1492 1493 1495 1496 1498 1499 1500 1502 1503 1504 1505 1506 1507 1508 1509 1510 1511 1513
1492 1493 1500 1497 1490 1485 1483 1482 1482 1481 1480 1480 1480 1478 1475 1475 1474 1474 1474 1474 1474 1475 1476 1477 1478 1480 1482 1483 1485 1487 1488 1490 1492 1493 1495 1496 1498 1499 1500 1501 1502 1504 1505 1506 1507 1508 1509 1510 1511
1492 1495 1496 1493 1491 1486 1482 1480 1480 1480 1479 1479 1478 1477 1474 1473 1473 1472 1472 1472 1473 1474 1475 1476 1477 1479 1481 1482 1484 1485 1487 1488 1490 1491 1493 1494 1496 1497 1498 1500 1501 1502 1503 1504 1506 1507 1508 1509 1510
1489 1493 1492 1492 1489 1484 1480 1479 1478 1478 1477 1477 1477 1475 1473 1472 1471 1470 1470 1471 1471 1472 1473 1474 1476 1477 1479 1480 1482 1483 1485 1486 1488 1489 1491 1492 1494 1495 1496 1498 1499 1500 1501 1503 1504 1505 1506 1507 1509
1489 1495 1492 1488 1486 1482 1478 1478 1477 1476 1475 1474 1474 1473 1472 1471 1469 1468 1468 1468 1469 1470 1471 1472 1473 1475 1476 1478 1479 1481 1483 1484 1486 1487 1489 1490 1491 1493 1494 1495 1496 1498 1499 1501 1502 1503 1504 1506 1507
1487 1492 1486 1482 1481 1480 1478 1477 1476 1474 1472 1471 1470 1470 1469 1468 1467 1466 1465 1465 1465 1466 1467 1469 1470 1472 1474 1475 1477 1478 1480 1481 1483 1484 1486 1487 1489 1490 1491 1492 1494 1495 1497 1498 1500 1501 1502 1503 1504
1485 1485 1481 1479 1479 1478 1477 1475 1473 1472 1469 1467 1466 1465 1465 1464 1464 1463 1463 1462 1462 1463 1464 1466 1467 1469 1470 1472 1473 1475 1476 1478 1479 1481 1483 1484 1486 1487 1488 1489 1491 1492 1494 1495 1497 1498 1499 1501 1502
1483 1480 1479 1477 1477 1476 1475 1472 1470 1468 1465 1465 1464 1462 1461 1461 1460 1460 1459 1459 1460 1460 1461 1462 1464 1465 1467 1468 1470 1471 1472 1474 1476 1477 1479 1481 1482 1483 1484 1486 1487 1489 1490 1492 1493 1494 1496 1498 1499
1481 1478 1476 1475 1474 1473 1471 1469 1467 1462 1460 1460 1460 1459 1458 1457 1456 1456 1456 1456 1456 1456 1457 1458 1460 1461 1463 1464 1465 1467 1468 1470 1472 1474 1475 1477 1478 1479 1481 1482 1484 1485 1487 1488 1489 1491 1493 1494 1495
1478 1476 1474 1472 1470 1469 1467 1463 1463 1456 1456 1456 1455 1454 1454 1453 1453 1452 1453 1452 1452 1452 1453 1454 1455 1457 1458 1459 1461 1462 1464 1466 1468 1469 1471 1473 1474 1475 1477 1478 1480 1481 1483 1484 1486 1487 1489 1490 1491
1477 1476 1472 1469 1467 1466 1465 1461 1457 1453 1453 1452 1451 1450 1449 1449 1449 1449 1449 1449 1449 1449 1449 1450 1451 1452 1453 1455 1456 1458 1459 1461 1463 1465 1466 1468 1469 1471 1472 1474 1475 1477 1479 1480 1482 1483 1485 1486 1487
1476 1478 1477 1468 1465 1464 1468 1462 1452 1451 1450 1448 1446 1445 1445 1444 1445 1445 1445 1445 1445 1446 1446 1446 1447 1448 1449 1450 1452 1453 1454 1456 1458 1460 1461 1463 1464 1466 1467 1469 1470 1472 1474 1475 1477 1478 1479 1481 1482
1480 1482 1478 1471 1464 1463 1464 1459 1449 1448 1447 1444 1442 1441 1440 1440 1440 1441 1441 1441 1442 1442 1442 1442 1443 1444 1445 1446 1447 1448 1450 1451 1453 1455 1456 1457 1459 1460 1462 1463 1465 1467 1469 1470 1472 1473 1474 1475 1477
1480 1480 1476 1472 1465 1464 1463 1456 1446 1444 1444 1441 1439 1438 1437 1437 1437 1437 1438 1438 1438 1438 1439 1439 1439 1439 1441 1442 1443 1444 1445 1446 1448 1449 1450 1452 1453 1455 1456 1457 1459 1461 1463 1464 1466 1467 1469 1470 1472
1475 1476 1475 1469 1463 1463 1458 1452 1443 1440 1439 1437 1435 1435 1435 1434 1435 1435 1435 1435 1435 1435 1435 1435 1435 1436 1437 1437 1438 1439 1440 1441 1442 1444 1445 1446 1448 1449 1450 1451 1453 1455 1456 1457 1460 1461 1463 1464 1467
1474 1475 1473 1466 1461 1460 1456 1449 1440 1436 1435 1434 1433 1432 1432 1432 1431 1432 1432 1432 1432 1432 1432 1432 1432 1433 1432 1433 1434 1435 1435 1436 1437 1438 1439 1441 1442 1443 1444 1445 1446 1448 1449 1451 1453 1455 1456 1458 1461
1471 1473 1470 1467 1461 1458 1457 1448 1440 1434 1432 1431 1430 1430 1430 1430 1429 1429 1429 1429 1429 1428 1429 1429 1429 1429 1429 1429 1430 1430 1431 1431 1432 1432 1433 1434 1435 1436 1438 1439 1440 1442 1443 1444 1446 1448 1449 1451 1454
1469 1464 1464 1464 1466 1465 1461 1459 1443 1435 1432 1429 1428 1427 1427 1427 1427 1427 1427 1426 1426 1426 1426 1426 1425 1425 1425 1425 1425 1425 1424 1424 1424 1426 1426 1428 1429 1430 1431 1432 1434 1435 1436 1437 1438 1440 1442 1444 1446
1462 1460 1461 1462 1464 1466 1463 1464 1447 1437 1433 1429 1427 1426 1425 1425 1425 1425 1425 1425 1424 1424 1423 1423 1422 1422 1421 1421 1420 1420 1420 1420 1420 1420 1421 1421 1422 1423 1424 1425 1426 1427 1429 1430 1432 1433 1435 1436 1438
1460 1461 1463 1465 1467 1467 1460 1464 1450 1439 1431 1428 1426 1424 1423 1423 1423 1423 1423 1422 1422 1421 1421 1420 1419 1418 1417 1416 1415 1415 1415 1414 1414 1414 1414 1414 1415 1415 1417 1418 1419 1420 1421 1422 1424 1425 1427 1428 1430
1461 1467 1473 1472 1472 1466 1457 1459 1447 1431 1428 1427 1425 1423 1422 1422 1421 1420 1419 1419 1418 1418 1417 1416 1414 1413 1412 1411 1410 1410 1409 1409 1408 1408 1407 1407 1407 1408 1409 1410 1411 1412 1413 1414 1416 1417 1418 1420 1421
1460 1464 1472 1474 1472 1466 1458 1454 1439 1427 1425 1424 1423 1422 1421 1420 1419 1418 1417 1416 1415 1414 1413 1412 1410 1409 1407 1406 1405 1405 1404 1403 1403 1402 1401 1401 1400 1400 1401 1402 1403 1404 1405 1407 1408 1409 1410 1412 1413
1460 1462 1463 1470 1472 1471 1459 1449 1437 1425 1424 1423 1422 1421 1420 1419 1418 1416 1415 1414 1412 1411 1409 1408 1406 1404 1403 1402 1400 1399 1398 1398 1397 1396 1395 1394 1394 1394 1394 1395 1395 1396 1397 1398 1400 1400 1402 1404 1405
1455 1459 1467 1469 1470 1468 1459 1452 1441 1428 1426 1424 1423 1421 1420 1418 1416 1414 1413 1411 1410 1408 1406 1404 1402 1400 1398 1397 1395 1394 1393 1392 1391 1390 1389 1388 1387 1387 1387 1387 1387 1388 1388 1390 1391 1392 1393 1395 1396
1457 1459 1460 1466 1467 1469 1462 1446 1428 1425 1423 1423 1422 1420 1419 1417 1415 1413 1411 1409 1406 1404 1402 1399 1397 1395 1393 1392 1390 1389 1387 1386 1385 1384 1383 1381 1380 1380 1379 1379 1380 1380 1380 1381 1382 1383 1384 1386 1387
1450 1453 1457 1465 1466 1467 1464 1444 1421 1421 1420 1420 1420 1418 1417 1415 1413 1411 1408 1405 1402 1399 1397 1395 1393 1391 1389 1387 1385 1383 1381 1380 1378 1377 1376 1374 1373 1373 1372 1372 1372 1372 1372 1373 1374 1375 1375 1377 1378